Weather History for KMZG - January, 2014

Change the Weather History Date:

Saturday, January 25, 2014

  Actual Average Record
Temperature  
Mean Temperature 52 °F -  
Max Temperature 60 °F - - ()
Min Temperature 44 °F - - ()
Degree Days  
Heating Degree Days 13    
Growing Degree Days 2 (Base 50)    
Moisture  
Dew Point 41 °F    
Average Humidity 68    
Maximum Humidity 87    
Minimum Humidity 48    
Precipitation  
Precipitation 0.00 in - - ()
Sea Level Pressure  
Sea Level Pressure 30.22 in    
Wind  
Wind Speed 10 mph (West)    
Max Wind Speed 15 mph    
Max Gust Speed 20 mph    
Visibility 10 miles    
Events      
Averages and records for this station are not official NWS values.
T = Trace of Precipitation, MM = Missing Value Source: NWS Daily Summary

Daily Weather History Graph

Daily Weather History Graph

Search for Another Location

Airport or City:

Trip Planner

Search our weather history database for the weather conditions in past years. The results will help you decide how hot, cold, wet, or windy it might be!

Date:

Astronomy

Jan. 25, 2014 Rise Set
Actual Time 7:14 AM CST 6:00 PM CST
Civil Twilight 6:49 AM CST 6:24 PM CST
Nautical Twilight 6:21 AM CST 6:53 PM CST
Astronomical Twilight 5:53 AM CST 7:21 PM CST
Moon 1:50 AM CST (1/25) 1:00 PM CST (1/25)
Length of Visible Light 11h 35m
Length of Day
10h 45m
Waning Crescent, 34% of the Moon is Illuminated
Jan 25
Waning Crescent
Jan 30
New
Feb 6
First Quarter
Feb 14
Full
Feb 22
Last Quarter

Hourly Weather History & Observations

Time (CST) Temp. Windchill Dew Point Humidity Pressure Visibility Wind Dir Wind Speed Gust Speed Precip Events Conditions
12:15 AM 44.6 °F 39.2 °F 39.2 °F 81% 30.38 in 10.0 mi NW 10.4 mph - N/A   Overcast
12:35 AM 44.6 °F 39.2 °F 39.2 °F 81% 30.37 in 10.0 mi NW 10.4 mph - N/A   Overcast
12:55 AM 44.6 °F 41.4 °F 39.2 °F 81% 30.37 in 10.0 mi Variable 5.8 mph - N/A   Overcast
1:15 AM 44.6 °F 39.2 °F 39.2 °F 81% 30.36 in 10.0 mi NW 10.4 mph - N/A   Overcast
1:35 AM 44.6 °F 39.7 °F 39.2 °F 81% 30.35 in 10.0 mi WNW 9.2 mph - N/A   Overcast
1:55 AM 44.6 °F 39.2 °F 39.2 °F 81% 30.35 in 10.0 mi NW 10.4 mph - N/A   Overcast
2:15 AM 44.6 °F 40.7 °F 39.2 °F 81% 30.34 in 10.0 mi WNW 6.9 mph 13.8 mph N/A   Overcast
2:35 AM 44.6 °F 39.7 °F 39.2 °F 81% 30.34 in 10.0 mi NW 9.2 mph - N/A   Overcast
2:55 AM 44.6 °F 38.8 °F 39.2 °F 81% 30.33 in 10.0 mi NW 11.5 mph - N/A   Overcast
3:15 AM 44.6 °F 40.2 °F 39.2 °F 81% 30.32 in 10.0 mi NW 8.1 mph 15.0 mph N/A   Overcast
3:35 AM 44.6 °F 40.2 °F 39.2 °F 81% 30.32 in 10.0 mi WNW 8.1 mph 13.8 mph N/A   Overcast
3:55 AM 44.6 °F 39.2 °F 41.0 °F 87% 30.32 in 10.0 mi NW 10.4 mph - N/A   Overcast
4:15 AM 44.6 °F 38.4 °F 39.2 °F 81% 30.31 in 10.0 mi NW 12.7 mph - N/A   Overcast
4:35 AM 44.6 °F 39.7 °F 39.2 °F 81% 30.31 in 10.0 mi WNW 9.2 mph - N/A   Overcast
4:55 AM 44.6 °F 39.7 °F 39.2 °F 81% 30.31 in 10.0 mi NW 9.2 mph 15.0 mph N/A   Overcast
5:15 AM 44.6 °F 39.2 °F 39.2 °F 81% 30.31 in 10.0 mi WNW 10.4 mph 17.3 mph N/A   Overcast
5:35 AM 44.6 °F 40.2 °F 39.2 °F 81% 30.31 in - WNW 8.1 mph 15.0 mph N/A   Overcast
5:55 AM 44.6 °F 41.4 °F 39.2 °F 81% 30.30 in 10.0 mi Variable 5.8 mph 11.5 mph N/A   Overcast
6:15 AM 44.6 °F 39.7 °F 39.2 °F 81% 30.30 in 10.0 mi NW 9.2 mph - N/A   Overcast
6:35 AM 44.6 °F 40.7 °F 39.2 °F 81% 30.30 in 10.0 mi Variable 6.9 mph 12.7 mph N/A   Overcast
6:55 AM 44.6 °F 39.2 °F 39.2 °F 81% 30.31 in 10.0 mi NW 10.4 mph - N/A   Mostly Cloudy
7:15 AM 44.6 °F 39.7 °F 39.2 °F 81% 30.31 in 10.0 mi West 9.2 mph 15.0 mph N/A   Mostly Cloudy
7:35 AM 44.6 °F 40.2 °F 39.2 °F 81% 30.30 in 10.0 mi WNW 8.1 mph - N/A   Mostly Cloudy
7:55 AM 44.6 °F 39.7 °F 39.2 °F 81% 30.30 in 10.0 mi Variable 9.2 mph - N/A   Mostly Cloudy
8:15 AM 46.4 °F 41.9 °F 41.0 °F 81% 30.30 in 10.0 mi WNW 9.2 mph - N/A   Mostly Cloudy
8:30 AM 46.4 °F 41.9 °F 41.0 °F 81% 30.30 in 10.0 mi WNW 9.2 mph 15.0 mph N/A   Scattered Clouds
8:50 AM 46.4 °F 41.1 °F 39.2 °F 76% 30.30 in 10.0 mi West 11.5 mph - N/A   Partly Cloudy
10:15 AM 48.2 °F - 41.0 °F 76% 30.30 in 10.0 mi WNW 10.4 mph - N/A   Partly Cloudy
10:35 AM 50.0 °F - 41.0 °F 71% 30.29 in 10.0 mi WNW 12.7 mph - N/A   Clear
10:55 AM 50.0 °F - 41.0 °F 71% 30.29 in 10.0 mi West 11.5 mph - N/A   Clear
11:15 AM 50.0 °F - 41.0 °F 71% 30.28 in 10.0 mi West 11.5 mph - N/A   Clear
11:35 AM 50.0 °F - 41.0 °F 71% 30.27 in 10.0 mi West 11.5 mph - N/A   Clear
11:55 AM 50.0 °F - 41.0 °F 71% 30.25 in 10.0 mi West 13.8 mph - N/A   Clear
12:05 PM 50.0 °F - 41.0 °F 71% 30.25 in 10.0 mi West 10.4 mph 16.1 mph N/A   Clear
12:55 PM 51.8 °F - 41.0 °F 67% 30.21 in 10.0 mi West 12.7 mph - N/A   Clear
1:15 PM 51.8 °F - 42.8 °F 71% 30.20 in 10.0 mi WSW 10.4 mph 17.3 mph N/A   Clear
1:35 PM 51.8 °F - 41.0 °F 67% 30.18 in 10.0 mi West 12.7 mph - N/A   Clear
1:55 PM 51.8 °F - 41.0 °F 67% 30.17 in 10.0 mi West 12.7 mph - N/A   Clear
2:15 PM 51.8 °F - 41.0 °F 67% 30.16 in 10.0 mi WSW 12.7 mph - N/A   Clear
2:35 PM 51.8 °F - 41.0 °F 67% 30.15 in 10.0 mi West 12.7 mph - N/A   Clear
2:55 PM 53.6 °F - 41.0 °F 62% 30.15 in 10.0 mi WSW 12.7 mph - N/A   Clear
3:15 PM 53.6 °F - 41.0 °F 62% 30.14 in 10.0 mi West 13.8 mph 19.6 mph N/A   Clear
3:35 PM 53.6 °F - 41.0 °F 62% 30.13 in 10.0 mi West 12.7 mph - N/A   Clear
3:55 PM 53.6 °F - 41.0 °F 62% 30.13 in 10.0 mi West 12.7 mph - N/A   Clear
4:15 PM 53.6 °F - 41.0 °F 62% 30.13 in 10.0 mi West 13.8 mph - N/A   Clear
4:35 PM 55.4 °F - 41.0 °F 58% 30.13 in 10.0 mi West 11.5 mph - N/A   Clear
4:55 PM 55.4 °F - 41.0 °F 58% 30.13 in 10.0 mi West 13.8 mph - N/A   Clear
5:15 PM 55.4 °F - 39.2 °F 54% 30.11 in 10.0 mi West 10.4 mph - N/A   Clear
5:35 PM 55.4 °F - 39.2 °F 54% 30.11 in 10.0 mi West 9.2 mph - N/A   Clear
5:55 PM 55.4 °F - 39.2 °F 54% 30.11 in 10.0 mi WSW 10.4 mph - N/A   Clear
6:15 PM 57.2 °F - 41.0 °F 55% 30.12 in 10.0 mi WSW 11.5 mph - N/A   Clear
6:35 PM 57.2 °F - 41.0 °F 55% 30.12 in 10.0 mi SW 13.8 mph - N/A   Clear
6:55 PM 57.2 °F - 41.0 °F 55% 30.11 in 10.0 mi SW 9.2 mph - N/A   Clear
7:15 PM 57.2 °F - 39.2 °F 51% 30.11 in 10.0 mi SW 8.1 mph - N/A   Clear
7:35 PM 57.2 °F - 39.2 °F 51% 30.11 in 10.0 mi WSW 5.8 mph 12.7 mph N/A   Clear
7:55 PM 59.0 °F - 39.2 °F 48% 30.11 in 10.0 mi SW 8.1 mph - N/A   Clear
8:15 PM 59.0 °F - 41.0 °F 51% 30.11 in 10.0 mi SSW 9.2 mph - N/A   Clear
8:35 PM 59.0 °F - 41.0 °F 51% 30.10 in 10.0 mi South 5.8 mph - N/A   Clear
8:55 PM 59.0 °F - 41.0 °F 51% 30.10 in 10.0 mi SSW 8.1 mph - N/A   Clear
9:15 PM 59.0 °F - 42.8 °F 55% 30.10 in 10.0 mi SSW 9.2 mph - N/A   Clear
9:35 PM 59.0 °F - 41.0 °F 51% 30.09 in 10.0 mi SSW 9.2 mph - N/A   Clear
9:55 PM 59.0 °F - 42.8 °F 55% 30.09 in 10.0 mi SSW 10.4 mph - N/A   Clear
10:15 PM 59.0 °F - 42.8 °F 55% 30.09 in 10.0 mi SSW 12.7 mph - N/A   Clear
10:35 PM 60.8 °F - 42.8 °F 52% 30.09 in 10.0 mi SSW 13.8 mph - N/A   Clear
10:55 PM 60.8 °F - 44.6 °F 55% 30.09 in 10.0 mi SSW 12.7 mph - N/A   Clear
11:15 PM 60.8 °F - 44.6 °F 55% 30.07 in 10.0 mi SSW 12.7 mph - N/A   Clear
11:35 PM 60.8 °F - 44.6 °F 55% 30.07 in 10.0 mi SSW 13.8 mph - N/A   Clear
11:55 PM 60.8 °F - 44.6 °F 55% 30.06 in 10.0 mi SSW 15.0 mph - N/A   Clear